Showing default

HULIANWANG DIGUI-04, 62326

Orbit data source: Space-Track

HULIANWANG DIGUI-04, 62326 is a payload satellite owned by Zhongguo Xingwang (CN) in LEO that was launched on Mon, 16 Dec 2024 UTC via a CHANG ZHENG 5B/YZ-2 launch vehicle from the Wenchang Satellite Launch Center (WSC). Payload-class satellites include a variety of spacecraft equipped with specific instruments for various scientific and technological missions. These include communications satellites like Starlink; space stations such as the ISS; scientific satellites like the Hubble; Earth observation satellites from companies like Planet Labs, Umbra, and HawkEye 360; GPS; miniature CubeSats for education and research; and military/defense satellites.

Loading next visibility...
Identifier
62326, 2024-240D
Orbit
LEO
Country
Flag of CNCN / PRC
Related business
Manufacturer
CAST?
Mission
Operational Civil Communications
Bus & Motor
XINGWANG CL, Unknown motor
Mass
~800 kg wet, ~800 kg dry
Launch date (UTC)
2024-12-16 (1 year ago)
Launch vehicle
CHANG ZHENG 5B/YZ-2
Launch site
Wenchang Satellite Launch Center (WSC)
Object type
Payload
Rocket body
Debris
Shape & HBR
Box + 2 Pan, 5.0 m
Radar Cross Section
5.935 m², Large (>1 m²)

Expand to show TLE details & history
Last TLE update: 7 hours ago

TLE from 7 hours ago
0 HULIANWANG DIGUI-04
1 62326U 24240D   26061.83790604  .00000049  00000-0  79426-4 0  9998
2 62326  86.5017  19.0427 0002050  86.3345 273.8024 13.24421613 58564
Epoch: 2026-03-02T20:06Z
TLE epoch observation values (Epoch: 2026-03-02T20:06:35.081Z)
Latitude
0.00001°
Longitude
-83.22905°
Altitude
1,170.67 km
Speed
7.268 km/s
True Right ascension
01h 16m 10s
True Declination
0° 00' 00"
Sunlit
Object was in daylight at epoch
Visualization orbit readout
Latitude
Unknown
Longitude
Unknown
Altitude
Unknown
Speed
Unknown
Apparent Right ascension
Unknown
Apparent Declination
Unknown
Sunlit
N/A
Visualization observer readout
Local Sidereal Time
06:31:25
Azimuth
Unknown
Elevation
Unknown
Doppler factor
Unknown
Orbital elements
Apogee altitude
1,166.544 km
Perigee altitude
1,163.452 km
Semi-major axis
7,543.135 km
Eccentricity
0.00021
Inclination
86.5017°
RAAN
19.0427°
Arg. of periapsis
86.3345°
True anomaly
273.77896°
Mean anomaly
273.8024°
Eccentric anomaly
273.79068°
Mean motion
3.31295 °/min
Orbital period
108.66 mins
BSTAR
0.000079426
Loading maneuver chart data...
Computing Atmospheric mass density...
Loading historical data...
Loading historical data...
Loading historical data...
Loading historical data...
Loading historical data...
Loading historical data...
Loading historical data...

Documentation

Showing up to 5 results
|